Gillette, WY

11:20 AM MDT on July 22, 2017 (GMT -0600)
Gillette-Campbell County

Weather History for KGCC - September, 2013

Change the Weather History Date:

Sunday, September 29, 2013

  Actual Average Record
Temperature  
Mean Temperature 59 °F 52 °F  
Max Temperature 68 °F 66 °F 86 °F (1952)
Min Temperature 49 °F 38 °F 19 °F (1985)
Degree Days  
Heating Degree Days 6 13  
Month to date heating degree days 134 224  
Since 1 July heating degree days 134 281  
Cooling Degree Days 0 0  
Month to date cooling degree days 93 40  
Year to date cooling degree days 615 500  
Growing Degree Days 7 (Base 50)    
Moisture  
Dew Point 36 °F    
Average Humidity 49    
Maximum Humidity 66    
Minimum Humidity 32    
Precipitation  
Precipitation 0.00 in 0.04 in 0.47 in (1965)
Month to date precipitation 2.38 1.14  
Year to date precipitation 15.81 11.62  
Sea Level Pressure  
Sea Level Pressure 29.70 in    
Wind  
Wind Speed 20 mph (SW)    
Max Wind Speed 35 mph    
Max Gust Speed 40 mph    
Visibility 10 miles    
Events      
T = Trace of Precipitation, MM = Missing Value Source: NWS Daily Summary

Daily Weather History Graph

Daily Weather History Graph

Search for Another Location

Airport or City:

Trip Planner

Search our weather history database for the weather conditions in past years. The results will help you decide how hot, cold, wet, or windy it might be!

Date:

Astronomy

Sep. 29, 2013 Rise Set
Actual Time 6:57 AM MDT 6:46 PM MDT
Civil Twilight 6:28 AM MDT 7:14 PM MDT
Nautical Twilight 5:55 AM MDT 7:48 PM MDT
Astronomical Twilight 5:20 AM MDT 8:22 PM MDT
Moon 1:31 AM MDT (9/29) 3:52 PM MDT (9/29)
Length of Visible Light 12h 45m
Length of Day
11h 48m
Waning Crescent, 26% of the Moon is Illuminated
Sep 29
Waning Crescent
Oct 4
New
Oct 11
First Quarter
Oct 18
Full
Oct 26
Last Quarter

Hourly Weather History & Observations

Time (MDT) Temp. Dew Point Humidity Pressure Visibility Wind Dir Wind Speed Gust Speed Precip Events Conditions
12:53 AM 51.1 °F 37.0 °F 59% 29.85 in 10.0 mi SW 20.7 mph - N/A   Clear
1:53 AM 51.1 °F 36.0 °F 56% 29.83 in 10.0 mi SW 24.2 mph 29.9 mph N/A   Clear
2:53 AM 51.1 °F 36.0 °F 56% 29.79 in 10.0 mi SW 17.3 mph 25.3 mph N/A   Clear
3:53 AM 48.9 °F 37.0 °F 64% 29.77 in 10.0 mi SW 20.7 mph - N/A   Clear
4:53 AM 50.0 °F 36.0 °F 59% 29.76 in 10.0 mi SW 20.7 mph 29.9 mph N/A   Clear
5:53 AM 51.1 °F 36.0 °F 56% 29.75 in 10.0 mi SW 21.9 mph 28.8 mph N/A   Clear
6:53 AM 50.0 °F 36.0 °F 59% 29.75 in 10.0 mi SW 21.9 mph - N/A   Clear
7:53 AM 52.0 °F 35.1 °F 53% 29.76 in 10.0 mi SW 23.0 mph - N/A   Clear
8:53 AM 55.9 °F 37.0 °F 49% 29.74 in 10.0 mi SSW 24.2 mph 32.2 mph N/A   Clear
9:53 AM 60.1 °F 37.0 °F 42% 29.71 in 10.0 mi SW 21.9 mph 32.2 mph N/A   Clear
10:53 AM 64.9 °F 37.0 °F 36% 29.68 in 10.0 mi SW 23.0 mph 39.1 mph N/A   Clear
11:53 AM 64.0 °F 37.9 °F 38% 29.66 in 10.0 mi SSW 24.2 mph 29.9 mph N/A   Clear
12:53 PM 64.0 °F 36.0 °F 35% 29.65 in 10.0 mi SW 24.2 mph 31.1 mph N/A   Clear
1:53 PM 66.0 °F 37.9 °F 36% 29.62 in 10.0 mi SW 19.6 mph 31.1 mph N/A   Clear
2:53 PM 66.9 °F 36.0 °F 32% 29.60 in 10.0 mi WSW 25.3 mph 32.2 mph N/A   Clear
3:53 PM 66.9 °F 36.0 °F 32% 29.61 in 10.0 mi West 20.7 mph 31.1 mph N/A   Clear
4:53 PM 64.9 °F 37.0 °F 36% 29.63 in 10.0 mi WSW 18.4 mph - N/A   Clear
5:53 PM 63.0 °F 37.0 °F 38% 29.65 in 10.0 mi WSW 13.8 mph - N/A   Clear
6:53 PM 62.1 °F 36.0 °F 38% 29.65 in 10.0 mi WSW 16.1 mph - N/A   Clear
7:53 PM 59.0 °F 36.0 °F 42% 29.66 in 10.0 mi WSW 12.7 mph - N/A   Clear
8:53 PM 55.9 °F 37.0 °F 49% 29.67 in 10.0 mi WSW 8.1 mph - N/A   Clear
9:53 PM 60.1 °F 35.1 °F 39% 29.65 in 10.0 mi WSW 20.7 mph - N/A   Clear
10:53 PM 57.9 °F 35.1 °F 42% 29.66 in 10.0 mi WSW 16.1 mph - N/A   Clear
11:53 PM 57.0 °F 35.1 °F 44% 29.66 in 10.0 mi WSW 16.1 mph - N/A   Clear